Tracking 27122 objects as of 26-Mar-2023
HD Live streaming from Space Station
objects crossing your sky now

COSMOS 1974

Track COSMOS 1974 now!
COSMOS 1974 is classified as:


NORAD ID: 19554
Int'l Code: 1988-092A
Perigee: 8,288.1 km
Apogee: 32,099.3 km
Inclination: 69.9 °
Period: 718.2 minutes
Semi major axis: 26564 km
RCS: 16.1296 m2 (large)
Launch date: October 3, 1988
Source: Commonwealth of Independent States (former USSR) (CIS)
Launch site: PLESETSK MISSILE AND SPACE COMPLEX (PKMTR)
Your satellite tracking list
Your tracking list is empty




NASA's NSSDC Master Catalog

Two Line Element Set (TLE):
1 19554U 88092A   23083.09282959  .00000073  00000-0  00000-0 0  9991
2 19554  69.9371 226.5310 4481728  98.1353  33.5692  2.00514231252446
Source of the keplerian elements: AFSPC